User: anonymous   Login
Location: Unspecified
(0.0000°N, 0.0000°E)
Time: 00:06:19
(UTC+00:00)
Language:

ELISA W23 - Orbit

View from above orbital plane
View from above orbital plane
View from above satellite
View from above satellite

Ground track
Ground track

The orbit data is extracted from the following two-line orbital elements,

1 38007U 11076A   18109.86884136 0.00000120  00000-0  22432-4 0    09
2 38007  97.9972 177.3181 0001000 353.5784   6.4215 14.64990482    02
Epoch (UTC): 19 April 2018 20:51:07
Eccentricity: 0.0001000
inclination: 97.9972°
perigee height: 676 km
apogee height: 678 km
right ascension of ascending node: 177.3181°
argument of perigee: 353.5784°
revolutions per day: 14.64990482
mean anomaly at epoch: 6.4215°
orbit number at epoch: 0

The dashed part of the orbit path shows where the satellite is in the earth's shadow,  

DLR